weather.gov     
National Weather Service

Terminal Aerodrome Forecast
NWS Homepage
This page is being discontinued on March 12, 2014.
The same data is available at this site. Please update your bookmarks.
Thank you, and we apologize for the inconvenience.
Please send an email to SR-SRH.Webmaster@noaa.gov with any concerns.


Current Version
Previous Version:    01  02  03  04  05  06  07  08  09  10  11  12  13  14  15  16  17  18  19  20  21  22  23  24  25  
[Printable]
864
FTUS46 KMTR 242300
TAFMRY
TAF
KMRY 242339Z 2500/2524 21012KT P6SM SKC
     FM250200 21005KT P6SM BKN010
     FM250400 14005KT P6SM BKN008
     FM251300 16008KT P6SM -SHRA BKN015
     FM251700 22011G18KT P6SM -SHRA BKN015 OVC025=


U.S. Dept. of Commerce
NOAA National Weather Service
1325 East West Highway
Silver Spring, MD 20910
E-mail: w-nws.webmaster@noaa.gov
Page last modified: May 16, 2007
NATIONAL WEATHER SERVICE: for Safety, for Work, for Fun - FOR LIFE